�������l�o���
Date,Time,MP-1(��Sv/h),MP-2(��Sv/h),MP-3(��Sv/h),MP-4(��Sv/h),MP-5(��Sv/h),MP-6(��Sv/h),MP-7(��Sv/h),MP-8(��Sv/h),����,����(m/s),���J
2019/11/01,00:00,0.713,1.005,0.655,1.235,0.872,0.415,0.711,0.675,���쐼,5.6,��
2019/11/01,00:10,0.711,1.007,0.657,1.236,0.875,0.415,0.711,0.675,���쐼,4.1,��
2019/11/01,00:20,0.713,1.007,0.658,1.237,0.872,0.415,0.712,0.676,�쐼,2.2,��
2019/11/01,00:30,0.711,1.006,0.658,1.236,0.873,0.414,0.712,0.676,���쐼,1.9,��
2019/11/01,00:40,0.712,1.005,0.658,1.239,0.873,0.414,0.710,0.675,���쐼,3.6,��
2019/11/01,00:50,0.711,1.005,0.657,1.236,0.873,0.413,0.711,0.675,���쐼,6.3,��
2019/11/01,01:00,0.711,1.008,0.656,1.234,0.871,0.414,0.712,0.676,���쐼,5.8,��
2019/11/01,01:10,0.713,1.007,0.658,1.233,0.873,0.414,0.711,0.675,���쐼,6.0,��
2019/11/01,01:20,0.712,1.007,0.656,1.235,0.873,0.414,0.712,0.674,���쐼,6.9,��
2019/11/01,01:30,0.712,1.007,0.658,1.234,0.872,0.413,0.712,0.676,�쐼,7.1,��
2019/11/01,01:40,0.713,1.006,0.658,1.239,0.871,0.415,0.712,0.676,���쐼,7.4,��
2019/11/01,01:50,0.712,1.007,0.656,1.235,0.873,0.415,0.712,0.675,�쐼,6.0,��
2019/11/01,02:00,0.712,1.005,0.658,1.235,0.869,0.414,0.710,0.675,�쐼,5.2,��
2019/11/01,02:10,0.714,1.004,0.657,1.236,0.876,0.415,0.712,0.676,�쐼,5.6,��
2019/11/01,02:20,0.713,1.006,0.660,1.236,0.873,0.416,0.712,0.676,�쐼,6.9,��
2019/11/01,02:30,0.713,1.006,0.659,1.236,0.874,0.415,0.712,0.676,�쐼,6.6,��
2019/11/01,02:40,0.714,1.005,0.658,1.236,0.873,0.415,0.714,0.675,�쐼,6.6,��
2019/11/01,02:50,0.713,1.007,0.658,1.233,0.873,0.415,0.713,0.675,��쐼,6.6,��
2019/11/01,03:00,0.714,1.006,0.658,1.236,0.874,0.414,0.712,0.675,��쐼,5.6,��
2019/11/01,03:10,0.711,1.007,0.658,1.235,0.875,0.413,0.711,0.675,��쐼,5.2,��
2019/11/01,03:20,0.713,1.007,0.658,1.235,0.875,0.413,0.713,0.675,�쐼,4.7,��
2019/11/01,03:30,0.712,1.006,0.658,1.236,0.874,0.416,0.710,0.676,��쐼,3.8,��
2019/11/01,03:40,0.711,1.006,0.658,1.234,0.873,0.415,0.714,0.676,��,3.8,��
2019/11/01,03:50,0.712,1.005,0.656,1.236,0.873,0.414,0.711,0.676,���쐼,2.1,��
2019/11/01,04:00,0.713,1.006,0.659,1.236,0.873,0.414,0.713,0.677,��쓌,1.5,��
2019/11/01,04:10,0.715,1.005,0.658,1.235,0.874,0.415,0.713,0.676,�k��,0.9,��
2019/11/01,04:20,0.713,1.005,0.658,1.237,0.874,0.416,0.712,0.674,�k��,0.9,��
2019/11/01,04:30,0.712,1.005,0.657,1.235,0.874,0.415,0.713,0.676,�k,1.3,��
2019/11/01,04:40,0.710,1.007,0.659,1.237,0.873,0.416,0.713,0.676,�k��,1.4,��
2019/11/01,04:50,0.712,1.005,0.658,1.235,0.871,0.415,0.713,0.675,�k��,1.2,��
2019/11/01,05:00,0.711,1.005,0.658,1.235,0.873,0.416,0.713,0.675,�k�k��,2.8,��
2019/11/01,05:10,0.711,1.005,0.658,1.234,0.872,0.414,0.713,0.675,�k�k��,2.2,��
2019/11/01,05:20,0.711,1.006,0.657,1.235,0.874,0.414,0.712,0.675,�k��,1.5,��
2019/11/01,05:30,0.712,1.006,0.658,1.236,0.874,0.413,0.712,0.675,�k,1.2,��
2019/11/01,05:40,0.710,1.006,0.658,1.234,0.875,0.414,0.711,0.675,�k,2.5,��
2019/11/01,05:50,0.711,1.007,0.658,1.235,0.871,0.413,0.712,0.675,��,1.6,��
2019/11/01,06:00,0.714,1.007,0.659,1.236,0.873,0.414,0.712,0.674,��,2.0,��
2019/11/01,06:10,0.711,1.005,0.659,1.235,0.874,0.415,0.712,0.673,���쐼,3.0,��
2019/11/01,06:20,0.710,1.006,0.658,1.234,0.874,0.413,0.712,0.676,���쐼,4.7,��
2019/11/01,06:30,0.711,1.005,0.657,1.236,0.875,0.416,0.711,0.677,���쐼,3.8,��
2019/11/01,06:40,0.713,1.006,0.660,1.236,0.874,0.414,0.712,0.675,��,1.9,��
2019/11/01,06:50,0.713,1.007,0.658,1.236,0.873,0.414,0.713,0.676,���쐼,2.7,��
2019/11/01,07:00,0.711,1.004,0.660,1.236,0.873,0.415,0.713,0.674,�쐼,4.1,��
2019/11/01,07:10,0.714,1.006,0.659,1.236,0.874,0.413,0.714,0.676,���쐼,3.3,��
2019/11/01,07:20,0.712,1.005,0.657,1.238,0.874,0.415,0.712,0.675,���쐼,3.1,��
2019/11/01,07:30,0.712,1.006,0.656,1.235,0.873,0.414,0.712,0.675,��,3.8,��
2019/11/01,07:40,0.714,1.007,0.657,1.234,0.874,0.415,0.712,0.677,���쐼,3.8,��
2019/11/01,07:50,0.715,1.005,0.659,1.236,0.873,0.414,0.715,0.677,���쐼,5.2,��
2019/11/01,08:00,0.714,1.007,0.658,1.238,0.875,0.415,0.715,0.676,���쐼,4.3,��
2019/11/01,08:10,0.713,1.006,0.656,1.236,0.873,0.415,0.713,0.676,���쐼,3.8,��
2019/11/01,08:20,0.714,1.006,0.655,1.236,0.874,0.414,0.712,0.677,���쐼,4.6,��
2019/11/01,08:30,0.715,1.002,0.658,1.237,0.872,0.414,0.712,0.677,��쐼,6.6,��
2019/11/01,08:40,0.716,1.000,0.658,1.235,0.874,0.414,0.712,0.676,�쐼,4.7,��
2019/11/01,08:50,0.714,1.000,0.657,1.238,0.873,0.413,0.712,0.676,��쐼,6.9,��
2019/11/01,09:00,0.714,1.001,0.659,1.237,0.875,0.415,0.712,0.676,�쐼,5.8,��
2019/11/01,09:10,0.712,1.000,0.654,1.238,0.875,0.416,0.713,0.676,��쐼,4.5,��
2019/11/01,09:20,0.712,0.996,0.658,1.241,0.876,0.416,0.712,0.677,�쐼,5.0,��
2019/11/01,09:30,0.711,0.997,0.658,1.238,0.872,0.415,0.713,0.677,�쐼,5.0,��
2019/11/01,09:40,0.708,1.001,0.657,1.239,0.874,0.414,0.712,0.677,���쐼,3.9,��
2019/11/01,09:50,0.709,1.001,0.658,1.240,0.875,0.415,0.713,0.676,���쐼,5.0,��
2019/11/01,10:00,0.712,1.005,0.656,1.237,0.874,0.415,0.713,0.676,�쐼,3.3,��
2019/11/01,10:10,0.715,1.003,0.656,1.239,0.875,0.413,0.713,0.677,�쐼,5.2,��
2019/11/01,10:20,0.714,1.002,0.657,1.241,0.873,0.415,0.713,0.675,���쐼,6.9,��
2019/11/01,10:30,0.715,1.002,0.656,1.240,0.873,0.415,0.714,0.675,��,5.8,��
2019/11/01,10:40,0.714,1.004,0.658,1.239,0.876,0.415,0.713,0.676,�쐼,4.9,��
2019/11/01,10:50,0.714,1.005,0.657,1.239,0.875,0.416,0.714,0.675,���쐼,3.8,��
2019/11/01,11:00,0.716,1.005,0.658,1.242,0.876,0.416,0.713,0.674,���쐼,3.8,��
2019/11/01,11:10,0.715,1.003,0.656,1.241,0.878,0.416,0.714,0.676,���쐼,5.5,��
2019/11/01,11:20,0.715,1.004,0.658,1.241,0.878,0.416,0.714,0.677,���쐼,4.9,��
2019/11/01,11:30,0.715,1.006,0.659,1.242,0.877,0.416,0.714,0.676,�쐼,3.1,��
2019/11/01,11:40,0.712,1.008,0.659,1.242,0.875,0.416,0.715,0.675,�쐼,7.2,��
2019/11/01,11:50,0.717,1.005,0.661,1.244,0.877,0.416,0.715,0.674,���쐼,5.0,��
2019/11/01,12:00,0.716,1.009,0.659,1.243,0.878,0.416,0.713,0.675,��,4.6,��
2019/11/01,12:10,0.716,1.009,0.660,1.243,0.876,0.415,0.715,0.676,���쐼,7.1,��
2019/11/01,12:20,0.716,1.009,0.660,1.243,0.878,0.417,0.714,0.674,���쐼,6.0,��
2019/11/01,12:30,0.716,1.011,0.660,1.242,0.877,0.415,0.714,0.675,��,5.5,��
2019/11/01,12:40,0.717,1.011,0.659,1.242,0.878,0.416,0.715,0.673,��,6.0,��
2019/11/01,12:50,0.718,1.011,0.660,1.245,0.879,0.416,0.713,0.676,��,7.4,��
2019/11/01,13:00,0.715,1.011,0.658,1.242,0.878,0.415,0.715,0.676,��,7.1,��
2019/11/01,13:10,0.710,1.008,0.658,1.246,0.879,0.416,0.714,0.674,��,6.3,��
2019/11/01,13:20,0.712,1.008,0.661,1.242,0.879,0.416,0.714,0.675,���k��,5.7,��
2019/11/01,13:30,0.711,1.006,0.658,1.242,0.880,0.416,0.713,0.675,��,7.5,��
2019/11/01,13:40,0.714,1.010,0.660,1.244,0.878,0.415,0.715,0.677,��,10.5,��
2019/11/01,13:50,0.712,1.008,0.661,1.242,0.879,0.417,0.715,0.675,�쐼,6.0,��
2019/11/01,14:00,0.715,1.008,0.662,1.244,0.880,0.416,0.714,0.674,���쐼,3.9,��
2019/11/01,14:10,0.713,1.008,0.660,1.243,0.880,0.417,0.714,0.674,��,6.6,��
2019/11/01,14:20,0.712,1.008,0.660,1.245,0.879,0.416,0.715,0.675,��,7.4,��
2019/11/01,14:30,0.712,1.008,0.659,1.243,0.879,0.417,0.714,0.675,��,7.4,��
2019/11/01,14:40,0.713,1.010,0.660,1.244,0.881,0.415,0.715,0.675,��,5.5,��
2019/11/01,14:50,0.713,1.010,0.660,1.246,0.882,0.417,0.715,0.673,��,4.6,��
2019/11/01,15:00,0.711,1.011,0.660,1.247,0.880,0.417,0.715,0.673,���쐼,3.8,��
2019/11/01,15:10,0.713,1.010,0.659,1.247,0.880,0.415,0.713,0.675,��,3.8,��
2019/11/01,15:20,0.716,1.011,0.660,1.246,0.879,0.415,0.715,0.675,��,4.7,��
2019/11/01,15:30,0.716,1.011,0.661,1.248,0.881,0.415,0.716,0.675,���쐼,4.6,��
2019/11/01,15:40,0.715,1.010,0.660,1.248,0.880,0.415,0.714,0.676,��,4.6,��
2019/11/01,15:50,0.716,1.011,0.659,1.247,0.881,0.413,0.713,0.677,���쐼,4.6,��
2019/11/01,16:00,0.716,1.012,0.660,1.248,0.880,0.416,0.714,0.675,��,3.8,��
2019/11/01,16:10,0.715,1.012,0.659,1.249,0.879,0.416,0.713,0.677,��,2.1,��
2019/11/01,16:20,0.715,1.017,0.660,1.246,0.877,0.415,0.714,0.675,���k��,1.0,��
2019/11/01,16:30,0.716,1.016,0.662,1.246,0.879,0.417,0.715,0.676,�k�k��,2.1,��
2019/11/01,16:40,0.715,1.018,0.662,1.248,0.880,0.416,0.713,0.677,�k��,3.4,��
2019/11/01,16:50,0.716,1.020,0.662,1.248,0.880,0.416,0.714,0.678,�k��,4.1,��
2019/11/01,17:00,0.717,1.017,0.664,1.249,0.883,0.417,0.713,0.679,�k�k��,4.3,��
2019/11/01,17:10,0.716,1.019,0.663,1.243,0.883,0.418,0.714,0.678,�k�k��,6.0,��
2019/11/01,17:20,0.715,1.017,0.666,1.248,0.883,0.417,0.713,0.677,�k��,4.9,��
2019/11/01,17:30,0.716,1.018,0.663,1.247,0.882,0.415,0.713,0.678,�k�k��,4.5,��
2019/11/01,17:40,0.718,1.018,0.663,1.247,0.883,0.417,0.715,0.677,�k��,5.6,��
2019/11/01,17:50,0.716,1.019,0.662,1.249,0.882,0.416,0.715,0.678,�k�k��,6.0,��
2019/11/01,18:00,0.716,1.017,0.663,1.249,0.882,0.416,0.713,0.677,�k�k��,5.5,��
2019/11/01,18:10,0.716,1.019,0.663,1.247,0.882,0.417,0.712,0.678,�k�k��,5.2,��
2019/11/01,18:20,0.717,1.017,0.663,1.247,0.882,0.416,0.715,0.677,�k�k��,6.9,��
2019/11/01,18:30,0.714,1.016,0.661,1.247,0.880,0.415,0.714,0.678,�k��,7.4,��
2019/11/01,18:40,0.714,1.017,0.663,1.246,0.883,0.413,0.714,0.677,�k��,6.3,��
2019/11/01,18:50,0.715,1.017,0.662,1.249,0.882,0.416,0.713,0.676,�k�k��,5.8,��
2019/11/01,19:00,0.714,1.019,0.663,1.247,0.882,0.415,0.713,0.678,�k��,6.3,��
2019/11/01,19:10,0.713,1.017,0.664,1.247,0.881,0.413,0.712,0.676,�k��,5.3,��
2019/11/01,19:20,0.715,1.017,0.664,1.249,0.881,0.413,0.712,0.678,�k�k��,4.5,��
2019/11/01,19:30,0.714,1.017,0.662,1.245,0.881,0.413,0.713,0.676,�k�k��,3.9,��
2019/11/01,19:40,0.715,1.017,0.662,1.250,0.881,0.413,0.712,0.678,�k�k��,3.5,��
2019/11/01,19:50,0.716,1.019,0.664,1.246,0.883,0.413,0.714,0.675,�k��,5.6,��
2019/11/01,20:00,0.712,1.019,0.662,1.248,0.882,0.414,0.713,0.677,�k��,5.2,��
2019/11/01,20:10,0.715,1.017,0.662,1.246,0.882,0.413,0.714,0.677,�k��,5.0,��
2019/11/01,20:20,0.714,1.016,0.664,1.249,0.882,0.413,0.713,0.676,�k��,5.7,��
2019/11/01,20:30,0.712,1.017,0.662,1.245,0.880,0.412,0.715,0.676,�k��,6.0,��
2019/11/01,20:40,0.714,1.015,0.663,1.248,0.882,0.411,0.715,0.676,�k��,5.5,��
2019/11/01,20:50,0.715,1.017,0.663,1.246,0.881,0.413,0.715,0.676,�k��,5.0,��
2019/11/01,21:00,0.713,1.014,0.661,1.248,0.881,0.412,0.713,0.677,�k��,5.2,��
2019/11/01,21:10,0.714,1.018,0.662,1.247,0.881,0.411,0.713,0.678,�k��,4.0,��
2019/11/01,21:20,0.712,1.017,0.662,1.245,0.880,0.410,0.714,0.676,�k��,5.2,��
2019/11/01,21:30,0.713,1.017,0.662,1.245,0.882,0.411,0.714,0.676,�k��,5.2,��
2019/11/01,21:40,0.714,1.016,0.661,1.248,0.880,0.412,0.714,0.677,�k��,5.2,��
2019/11/01,21:50,0.714,1.017,0.661,1.244,0.881,0.412,0.714,0.675,�k��,6.0,��
2019/11/01,22:00,0.714,1.016,0.662,1.245,0.879,0.410,0.715,0.674,�k��,4.9,��
2019/11/01,22:10,0.712,1.016,0.661,1.247,0.881,0.412,0.713,0.675,�k��,3.9,��
2019/11/01,22:20,0.713,1.015,0.663,1.247,0.883,0.411,0.713,0.675,�k��,3.1,��
2019/11/01,22:30,0.712,1.015,0.662,1.246,0.881,0.411,0.713,0.676,�k��,3.2,��
2019/11/01,22:40,0.712,1.017,0.661,1.247,0.882,0.413,0.714,0.677,�k��,3.0,��
2019/11/01,22:50,0.713,1.015,0.661,1.247,0.880,0.412,0.713,0.677,�k��,2.8,��
2019/11/01,23:00,0.712,1.016,0.661,1.248,0.881,0.411,0.715,0.677,���k��,2.9,��
2019/11/01,23:10,0.715,1.014,0.660,1.248,0.880,0.411,0.714,0.675,�k��,3.8,��
2019/11/01,23:20,0.713,1.016,0.661,1.246,0.881,0.411,0.713,0.674,�k��,3.5,��
2019/11/01,23:30,0.714,1.018,0.660,1.247,0.882,0.411,0.710,0.677,���k��,3.8,��
2019/11/01,23:40,0.711,1.015,0.662,1.248,0.880,0.411,0.712,0.677,���k��,3.8,��
2019/11/01,23:50,0.712,1.016,0.661,1.247,0.882,0.411,0.713,0.676,���k��,2.5,��
